TimeEDT,TemperatureF,Dew PointF,Humidity,Sea Level PressureIn,VisibilityMPH,Wind Direction,Wind SpeedMPH,Gust SpeedMPH,PrecipitationIn,Events,Conditions,WindDirDegrees,DateUTC
12:51 AM,42.1,39.0,89,29.46,10.0,South,4.6,-,0.00,,Overcast,170,2012-10-31 04:51:00
1:03 AM,42.8,39.2,87,29.46,10.0,South,4.6,-,N/A,,Overcast,170,2012-10-31 05:03:00
1:51 AM,42.1,39.0,89,29.46,10.0,South,4.6,-,N/A,,Overcast,170,2012-10-31 05:51:00
2:21 AM,42.8,37.4,81,29.46,10.0,South,5.8,-,N/A,,Overcast,180,2012-10-31 06:21:00
2:51 AM,42.1,37.9,85,29.47,10.0,South,5.8,-,N/A,,Overcast,170,2012-10-31 06:51:00
3:21 AM,42.8,37.4,81,29.46,10.0,South,5.8,-,N/A,,Overcast,180,2012-10-31 07:21:00
3:51 AM,42.1,39.0,89,29.47,10.0,South,4.6,-,N/A,,Overcast,190,2012-10-31 07:51:00
4:24 AM,42.8,39.2,87,29.47,10.0,South,4.6,-,0.00,Rain,Light Rain,170,2012-10-31 08:24:00
4:49 AM,42.8,39.2,87,29.47,10.0,SSW,4.6,-,0.00,,Overcast,200,2012-10-31 08:49:00
4:51 AM,42.1,39.0,89,29.48,10.0,SSW,4.6,-,0.00,,Overcast,200,2012-10-31 08:51:00
5:42 AM,42.8,39.2,87,29.48,10.0,SSW,6.9,-,N/A,,Overcast,210,2012-10-31 09:42:00
5:51 AM,42.1,39.0,89,29.49,9.0,SSW,5.8,-,N/A,,Overcast,210,2012-10-31 09:51:00
6:33 AM,42.8,39.2,87,29.50,10.0,SSW,4.6,-,0.00,,Overcast,210,2012-10-31 10:33:00
6:51 AM,42.1,37.9,85,29.50,10.0,SSW,6.9,-,0.00,,Overcast,210,2012-10-31 10:51:00
7:41 AM,42.8,37.4,81,29.51,10.0,SW,4.6,-,N/A,,Overcast,220,2012-10-31 11:41:00
7:51 AM,42.1,37.9,85,29.52,10.0,SW,5.8,-,N/A,,Overcast,220,2012-10-31 11:51:00
7:58 AM,42.8,37.4,81,29.51,10.0,SW,5.8,-,N/A,,Overcast,230,2012-10-31 11:58:00
8:23 AM,42.8,37.4,81,29.52,10.0,SW,6.9,-,N/A,,Overcast,220,2012-10-31 12:23:00
8:51 AM,42.1,37.9,85,29.53,10.0,SSW,6.9,-,N/A,,Overcast,210,2012-10-31 12:51:00
9:51 AM,43.0,37.0,80,29.54,10.0,SSW,10.4,-,N/A,,Overcast,200,2012-10-31 13:51:00
10:51 AM,43.0,37.0,80,29.54,10.0,SSW,9.2,-,N/A,,Overcast,210,2012-10-31 14:51:00
11:51 AM,44.1,37.0,76,29.55,10.0,SSW,9.2,-,N/A,,Overcast,210,2012-10-31 15:51:00
12:51 PM,44.1,37.0,76,29.55,10.0,SW,9.2,-,N/A,,Overcast,220,2012-10-31 16:51:00
1:02 PM,44.6,37.4,76,29.54,10.0,SSW,8.1,-,N/A,,Overcast,200,2012-10-31 17:02:00
1:24 PM,44.6,37.4,76,29.53,10.0,SW,8.1,-,N/A,,Overcast,220,2012-10-31 17:24:00
1:51 PM,45.0,37.9,76,29.54,10.0,WSW,10.4,-,N/A,,Overcast,250,2012-10-31 17:51:00
2:51 PM,44.1,37.9,79,29.54,10.0,WSW,10.4,-,N/A,,Overcast,250,2012-10-31 18:51:00
3:20 PM,44.6,37.4,76,29.54,10.0,WSW,10.4,-,N/A,,Overcast,240,2012-10-31 19:20:00
3:35 PM,44.6,37.4,76,29.54,10.0,WSW,8.1,-,N/A,,Overcast,240,2012-10-31 19:35:00
3:51 PM,44.1,37.9,79,29.55,10.0,WSW,11.5,-,N/A,,Overcast,240,2012-10-31 19:51:00
4:36 PM,44.6,37.4,76,29.55,10.0,WSW,5.8,-,N/A,,Overcast,250,2012-10-31 20:36:00
4:51 PM,44.1,37.9,79,29.55,10.0,WSW,8.1,-,N/A,,Overcast,240,2012-10-31 20:51:00
5:34 PM,44.6,37.4,76,29.56,10.0,WSW,6.9,-,N/A,,Overcast,250,2012-10-31 21:34:00
5:51 PM,44.1,39.0,82,29.57,10.0,WSW,8.1,-,N/A,,Overcast,240,2012-10-31 21:51:00
6:51 PM,44.1,37.9,79,29.59,10.0,WSW,4.6,-,N/A,,Overcast,240,2012-10-31 22:51:00
7:51 PM,44.1,39.0,82,29.59,10.0,SW,4.6,-,N/A,,Overcast,230,2012-10-31 23:51:00
8:51 PM,45.0,37.9,76,29.60,10.0,SW,5.8,-,N/A,,Overcast,220,2012-11-01 00:51:00
9:51 PM,44.1,37.9,79,29.59,10.0,WSW,6.9,-,N/A,,Overcast,240,2012-11-01 01:51:00
10:51 PM,44.1,37.0,76,29.59,10.0,WSW,8.1,-,N/A,,Mostly Cloudy,250,2012-11-01 02:51:00
11:51 PM,43.0,37.0,80,29.59,10.0,WSW,4.6,-,N/A,,Overcast,240,2012-11-01 03:51:00